Le nostre stazioni meteo in Italia

Pubblicità
Il mio iltempo24.it
Monte Cimone, Italia (16134): Temperatura & dewpoint: 15.04.2019 09:00:00 - 21.04.2019 09:00:00 (CEST)Monte Cimone, Italia (16134): velocità del vento: 15.04.2019 09:00:00 - 21.04.2019 09:00:00 (CEST)Monte Cimone, Italia (16134): direzione del vento: 15.04.2019 09:00:00 - 21.04.2019 09:00:00 (CEST)Monte Cimone, Italia (16134): visibility: 15.04.2019 09:00:00 - 21.04.2019 09:00:00 (CEST)Monte Cimone, Italia (16134): ore di luce: 15.04.2019 09:00:00 - 21.04.2019 09:00:00 (CEST)
Data & Tempo tt [°C] td [°C] ff [km/h] ff [kn] dd vv [km] sd [min]
21.04.2019 09:00:00 - - - - - - -
21.04.2019 08:00:00 - - - - - - -
21.04.2019 07:00:00 - - - - - - -
21.04.2019 06:00:00 - - - - - - -
21.04.2019 05:00:00 - - - - - - -
21.04.2019 04:00:00 - - - - - - -
21.04.2019 03:00:00 - - - - - - -
21.04.2019 02:00:00 - - - - - - -
21.04.2019 01:00:00 - - - - - - -
21.04.2019 00:00:00 - - - - - - -
20.04.2019 23:00:00 - - - - - - -
20.04.2019 22:00:00 - - - - - - -
20.04.2019 21:00:00 - - - - - - -
20.04.2019 20:00:00 - - - - - - -
20.04.2019 19:00:00 - - - - - - -
20.04.2019 18:00:00 - - - - - - -
20.04.2019 17:00:00 - - - - - - -
20.04.2019 16:00:00 - - - - - - -
20.04.2019 15:00:00 - - - - - - -
20.04.2019 14:00:00 - - - - - - -
20.04.2019 13:00:00 - - - - - - -
20.04.2019 12:00:00 - - - - - - -
20.04.2019 11:00:00 - - - - - - -
20.04.2019 10:00:00 - - - - - - -
20.04.2019 09:00:00 - - - - - - -
20.04.2019 08:00:00 - - - - - - -
20.04.2019 07:00:00 - - - - - - -
20.04.2019 06:00:00 - - - - - - -
20.04.2019 05:00:00 - - - - - - -
20.04.2019 04:00:00 - - - - - - -
20.04.2019 03:00:00 - - - - - - -
20.04.2019 02:00:00 - - - - - - -
20.04.2019 01:00:00 - - - - - - -
20.04.2019 00:00:00 - - - - - - -
19.04.2019 23:00:00 - - - - - - -
19.04.2019 22:00:00 - - - - - - -
19.04.2019 21:00:00 - - - - - - -
19.04.2019 20:00:00 - - - - - - -
19.04.2019 19:00:00 - - - - - - -
19.04.2019 18:00:00 - - - - - - -
19.04.2019 17:00:00 - - - - - - -
19.04.2019 16:00:00 - - - - - - -
19.04.2019 15:00:00 - - - - - - -
19.04.2019 14:00:00 - - - - - - -
19.04.2019 13:00:00 - - - - - - -
19.04.2019 12:00:00 - - - - - - -
19.04.2019 11:00:00 - - - - - - -
19.04.2019 10:00:00 - - - - - - -
19.04.2019 09:00:00 - - - - - - -
19.04.2019 08:00:00 -2,0 -3,9 48 26 ENE 10 -
19.04.2019 07:00:00 -1,8 -2,2 48 26 E - -
19.04.2019 06:00:00 -1,8 -3,5 46 25 ENE - -
19.04.2019 05:00:00 -1,6 -3,5 55 30 E 10 -
19.04.2019 04:00:00 -1,4 -5,1 55 30 E 30 -
19.04.2019 03:00:00 -1,0 -5,4 48 26 E 30 -
19.04.2019 02:00:00 -1,0 -6,4 52 28 E 30 -
19.04.2019 01:00:00 -1,0 -6,7 52 28 E 30 -
19.04.2019 00:00:00 -1,0 -7,1 57 31 E 30 -
18.04.2019 23:00:00 -1,2 -6,5 42 23 ENE 30 -
18.04.2019 22:00:00 -1,2 -6,5 42 23 ENE 30 -
18.04.2019 21:00:00 -1,0 -5,8 46 25 NE 20 -
18.04.2019 20:00:00 -0,6 -3,6 42 23 NE 20 0
18.04.2019 19:00:00 -0,4 -0,8 35 19 NE 0,8 0
18.04.2019 18:00:00 0,2 -1,2 41 22 NE 10 6
18.04.2019 17:00:00 0,4 -1,7 41 22 ENE 20 42
18.04.2019 16:00:00 0,6 -2,0 35 19 ENE 30 60
18.04.2019 15:00:00 0,6 -2,4 37 20 ENE 30 60
18.04.2019 14:00:00 0,4 -3,3 35 19 ENE 30 60
18.04.2019 13:00:00 0,2 -3,4 35 19 E 30 60
18.04.2019 12:00:00 0,0 -3,5 37 20 ENE 30 60
18.04.2019 11:00:00 -0,4 -5,6 35 19 ENE 30 60
18.04.2019 10:00:00 -0,4 -4,1 37 20 E 20 60
18.04.2019 09:00:00 -0,6 -5,4 39 21 E 20 60
18.04.2019 08:00:00 -0,8 -5,6 41 22 E 22 30
18.04.2019 07:00:00 -1,4 -7,1 39 21 E 20 0
18.04.2019 06:00:00 -1,4 -8,2 41 22 ESE 20 -
18.04.2019 05:00:00 -1,0 -7,8 42 23 ESE 20 -
18.04.2019 04:00:00 -1,0 -7,8 41 22 ESE 20 -
18.04.2019 03:00:00 -0,8 -12,7 42 23 ESE 20 -
18.04.2019 02:00:00 -0,6 -13,8 48 26 ESE 20 -
18.04.2019 01:00:00 -0,6 -10,8 37 20 E 20 -
18.04.2019 00:00:00 -0,8 -12,7 34 18 NE 20 -
17.04.2019 23:00:00 0,0 -12,3 41 22 NNE 20 -
17.04.2019 22:00:00 1,0 -7,0 41 22 NNE 20 -
17.04.2019 21:00:00 1,4 -2,7 13 7 N 10 0
17.04.2019 20:00:00 1,2 -1,9 5 3 NNO 20 24
17.04.2019 19:00:00 1,0 -2,6 16 9 NE 20 42
17.04.2019 18:00:00 1,4 -2,5 21 11 NNE 20 42
17.04.2019 17:00:00 2,2 -2,0 11 6 NE 20 60
17.04.2019 16:00:00 2,2 -2,1 15 8 NE 20 48
17.04.2019 15:00:00 2,0 -2,5 21 11 NE 20 48
17.04.2019 14:00:00 1,6 -3,7 11 6 ENE 20 60
17.04.2019 13:00:00 1,2 -3,7 5 3 NNE 20 60
17.04.2019 12:00:00 0,4 -3,5 16 9 NE 20 60
17.04.2019 11:00:00 0,0 -4,8 16 9 ENE 20 60
17.04.2019 10:00:00 0,0 -3,9 15 8 NE 20 60
17.04.2019 09:00:00 0,2 -5,8 16 9 N 20 60
17.04.2019 08:00:00 0,0 -2,7 8 4 N 20 30
17.04.2019 07:00:00 0,0 -2,7 8 4 N 20 -
17.04.2019 06:00:00 0,0 -2,2 0 0 N 10 -
17.04.2019 05:00:00 0,0 -2,7 0 0 N 20 -
17.04.2019 04:00:00 0,0 -2,5 0 0 N 20 -
17.04.2019 03:00:00 - - - - - - -
17.04.2019 02:00:00 0,2 -2,0 0 0 N 20 -
17.04.2019 01:00:00 0,2 -1,7 0 0 N 20 -
17.04.2019 00:00:00 0,4 -1,8 8 4 NNE 20 -
16.04.2019 23:00:00 0,4 -2,0 8 4 NNE 20 -
16.04.2019 22:00:00 0,4 -1,8 9 5 SSO 20 -
16.04.2019 21:00:00 0,0 -1,4 8 4 S - -
16.04.2019 20:00:00 0,0 -1,4 9 5 SSE - 0
16.04.2019 19:00:00 0,2 -1,6 9 5 SE - 0
16.04.2019 18:00:00 0,4 -2,0 0 0 N 20 0
16.04.2019 17:00:00 0,4 -2,5 9 5 ESE 20 6
16.04.2019 16:00:00 0,2 -4,1 9 5 S 20 0
16.04.2019 15:00:00 0,0 -4,4 15 8 S 20 12
16.04.2019 14:00:00 0,2 -3,9 11 6 SSO 20 18
16.04.2019 13:00:00 0,0 -4,1 16 9 S 20 60
16.04.2019 12:00:00 -0,4 -3,9 9 5 SSE 20 60
16.04.2019 11:00:00 -0,8 -4,0 15 8 SE 20 60
16.04.2019 10:00:00 -1,4 -4,7 13 7 ESE 30 60
16.04.2019 09:00:00 -2,4 -5,4 21 11 ESE 40 60
16.04.2019 08:00:00 -2,6 -5,2 22 12 ESE 40 60
16.04.2019 07:00:00 -2,8 -5,4 26 14 ESE 40 -
16.04.2019 06:00:00 - - - - - - -
16.04.2019 05:00:00 -2,8 -5,0 28 15 E 50 -
16.04.2019 04:00:00 - - - - - - -
16.04.2019 03:00:00 -2,8 -6,1 29 16 E 50 -
16.04.2019 02:00:00 -2,6 -6,1 31 17 E 50 -
16.04.2019 01:00:00 -2,8 -5,8 34 18 E 40 -
16.04.2019 00:00:00 -2,8 -5,8 34 18 E 40 -
15.04.2019 23:00:00 -2,6 -6,1 39 21 E 40 -
15.04.2019 22:00:00 -2,6 -4,9 39 21 E 30 -
15.04.2019 21:00:00 -2,2 -2,7 31 17 ENE - -
15.04.2019 20:00:00 -1,6 -2,2 37 20 NNE - -
15.04.2019 19:00:00 -1,6 -2,2 28 15 NNE - 0
15.04.2019 18:00:00 -2,0 -2,5 34 18 NE 0,2 0
15.04.2019 17:00:00 -2,0 -2,6 42 23 NNE 0,2 0
15.04.2019 16:00:00 -2,0 -2,6 39 21 NE 0,2 0
15.04.2019 15:00:00 -2,0 -2,6 37 20 NNE 0,2 0
15.04.2019 14:00:00 -2,0 -2,6 46 25 NNE 0,2 0
15.04.2019 13:00:00 -2,2 -2,7 52 28 NNE 0,2 0
15.04.2019 12:00:00 -2,8 -3,5 57 31 NNE 0,2 0
15.04.2019 11:00:00 -2,2 -3,0 59 32 NNE 0,2 0
15.04.2019 10:00:00 0,0 -1,4 55 30 N 0,2 0
15.04.2019 09:00:00 - - - - - - -

tt = Temperatura
td = dewpoint
ff = velocità del vento
dd = direzione del vento
vv = visibility
sd = ore di luce

Stazioni seguenti

WeatherPro
AMSI
MeteoEarth